| time (UTC) | temp C | wind direction | speed KPH | gust KPH | rain 1hr cm | rain 24hr cm | rain mn cm | humidity % | barometer mb |
| 20260503050035 | 4 | 66 | 0.0 | 3.2 | 0.00 | 0.00 | 0.00 | 68 | 1009.9 |
| 20260503044528 | 5 | 153 | 0.0 | 0.0 | 0.00 | 0.00 | 0.00 | 67 | 1010.1 |
| 20260503043102 | 5 | 133 | 0.0 | 1.6 | 0.00 | 0.00 | 0.00 | 68 | 1010.2 |
| 20260503041558 | 5 | 196 | 0.0 | 1.6 | 0.00 | 0.00 | 0.00 | 68 | 1010.4 |
| 20260503040100 | 5 | 196 | 0.0 | 0.0 | 0.00 | 0.00 | 0.00 | 67 | 1010.4 |
| 20260503034556 | 5 | 197 | 0.0 | 0.0 | 0.00 | 0.00 | 0.00 | 67 | 1010.4 |
| 20260503033125 | 5 | 189 | 0.0 | 0.0 | 0.00 | 0.00 | 0.00 | 67 | 1010.4 |
| 20260503031559 | 5 | 189 | 0.0 | 0.0 | 0.00 | 0.00 | 0.00 | 66 | 1010.4 |
| 20260503030057 | 5 | 189 | 0.0 | 0.0 | 0.00 | 0.00 | 0.00 | 68 | 1010.4 |
| 20260503024607 | 5 | 189 | 0.0 | 0.0 | 0.00 | 0.00 | 0.00 | 64 | 1010.5 |
| 20260503023049 | 5 | 189 | 0.0 | 3.2 | 0.00 | 0.00 | 0.00 | 63 | 1010.5 |
| 20260503021555 | 5 | 253 | 0.0 | 0.0 | 0.00 | 0.00 | 0.00 | 63 | 1010.7 |
| 20260503020049 | 5 | 253 | 0.0 | 0.0 | 0.00 | 0.00 | 0.00 | 64 | 1010.7 |
| 20260503014545 | 5 | 253 | 0.0 | 1.6 | 0.00 | 0.00 | 0.00 | 60 | 1010.5 |
| 20260503013045 | 6 | 253 | 0.0 | 0.0 | 0.00 | 0.00 | 0.00 | 59 | 1010.5 |
| 20260503011546 | 6 | 253 | 0.0 | 1.6 | 0.00 | 0.00 | 0.00 | 58 | 1010.4 |
| 20260503010041 | 6 | 254 | 0.0 | 0.0 | 0.00 | 0.00 | 0.00 | 56 | 1010.3 |
| 20260503004544 | 7 | 254 | 0.0 | 0.0 | 0.00 | 0.00 | 0.00 | 56 | 1010.0 |
| 20260503003040 | 7 | 196 | 0.0 | 0.0 | 0.00 | 0.00 | 0.00 | 55 | 1009.9 |
| 20260503001543 | 7 | 196 | 0.0 | 0.0 | 0.00 | 0.00 | 0.00 | 53 | 1009.7 |
| 20260503000014 | 8 | 196 | 0.0 | 0.0 | 0.00 | 0.00 | 0.00 | 53 | 1009.6 |
| 20260502234509 | 8 | 196 | 0.0 | 0.0 | 0.00 | 0.00 | 0.00 | 53 | 1009.7 |
| 20260502233053 | 8 | 196 | 0.0 | 1.6 | 0.00 | 0.00 | 0.00 | 52 | 1009.6 |
| 20260502231556 | 9 | 196 | 0.0 | 1.6 | 0.00 | 0.00 | 0.00 | 44 | 1009.5 |
| 20260502230035 | 10 | 196 | 0.0 | 3.2 | 0.00 | 0.00 | 0.00 | 49 | 1009.5 |
| 20260502224535 | 10 | 277 | 0.0 | 1.6 | 0.00 | 0.00 | 0.00 | 46 | 1009.2 |
| 20260502223038 | 10 | 281 | 0.0 | 3.2 | 0.00 | 0.00 | 0.00 | 45 | 1009.1 |
| 20260502221534 | 10 | 53 | 0.0 | 1.6 | 0.00 | 0.00 | 0.00 | 45 | 1009.1 |
| 20260502220038 | 10 | 163 | 0.0 | 1.6 | 0.00 | 0.00 | 0.00 | 43 | 1009.1 |
| 20260502214530 | 11 | 59 | 0.0 | 1.6 | 0.00 | 0.00 | 0.00 | 45 | 1009.0 |
| 20260502213030 | 12 | 53 | 1.6 | 8.0 | 0.00 | 0.00 | 0.00 | 41 | 1008.9 |
| 20260502211540 | 11 | 59 | 0.0 | 4.8 | 0.00 | 0.00 | 0.00 | 44 | 1008.8 |
| 20260502210026 | 11 | 101 | 0.0 | 3.2 | 0.00 | 0.00 | 0.00 | 39 | 1008.7 |
| 20260502204525 | 12 | 299 | 0.0 | 9.7 | 0.00 | 0.00 | 0.00 | 41 | 1008.9 |
| 20260502203024 | 12 | 277 | 0.0 | 8.0 | 0.00 | 0.00 | 0.00 | 42 | 1009.0 |
| 20260502201522 | 12 | 263 | 0.0 | 9.7 | 0.00 | 0.00 | 0.00 | 43 | 1009.0 |
| 20260502200021 | 12 | 345 | 0.0 | 11.3 | 0.00 | 0.00 | 0.00 | 40 | 1009.1 |
| 20260502194520 | 12 | 240 | 0.0 | 3.2 | 0.00 | 0.00 | 0.00 | 41 | 1009.3 |
| 20260502193023 | 11 | 255 | 0.0 | 3.2 | 0.00 | 0.00 | 0.00 | 44 | 1009.4 |
| 20260502191523 | 11 | 246 | 0.0 | 1.6 | 0.00 | 0.00 | 0.00 | 44 | 1009.6 |
| 20260502190051 | 12 | 213 | 0.0 | 6.4 | 0.00 | 0.00 | 0.00 | 46 | 1009.7 |
| 20260502184547 | 12 | 222 | 0.0 | 3.2 | 0.00 | 0.00 | 0.00 | 45 | 1009.7 |
| 20260502183016 | 11 | 65 | 0.0 | 0.0 | 0.00 | 0.00 | 0.00 | 49 | 1009.9 |
| 20260502181515 | 11 | 355 | 0.0 | 3.2 | 0.00 | 0.00 | 0.00 | 44 | 1009.8 |
| 20260502163005 | 11 | 104 | 0.0 | 12.9 | 0.00 | 0.00 | 0.00 | 47 | 1010.1 |
| 20260502161501 | 11 | 250 | 0.0 | 1.6 | 0.00 | 0.00 | 0.00 | 51 | 1010.1 |
| 20260502160104 | 11 | 257 | 0.0 | 6.4 | 0.00 | 0.00 | 0.00 | 51 | 1010.4 |
| 20260502151559 | 10 | 179 | 0.0 | 6.4 | 0.00 | 0.00 | 0.00 | 59 | 1010.4 |
| 20260502123056 | 5 | 112 | 0.0 | 1.6 | 0.00 | 0.00 | 0.00 | 90 | 1010.7 |
| 20260502121534 | 5 | 134 | 0.0 | 1.6 | 0.00 | 0.00 | 0.00 | 90 | 1010.7 |
| 20260502114559 | 5 | 286 | 0.0 | 1.6 | 0.00 | 0.00 | 0.00 | 94 | 1010.7 |
| 20260502113051 | 4 | 202 | 0.0 | 0.0 | 0.00 | 0.00 | 0.00 | 94 | 1011.0 |
| 20260502111551 | 4 | 238 | 0.0 | 3.2 | 0.00 | 0.00 | 0.00 | 94 | 1010.7 |
| 20260502110047 | 5 | 263 | 0.0 | 3.2 | 0.00 | 0.00 | 0.00 | 94 | 1010.4 |
| 20260502104549 | 5 | 82 | 0.0 | 11.3 | 0.00 | 0.00 | 0.00 | 94 | 1010.2 |
| 20260502103041 | 5 | 194 | 0.0 | 1.6 | 0.00 | 0.00 | 0.00 | 95 | 1010.0 |
| 20260502101538 | 5 | 309 | 0.0 | 0.0 | 0.00 | 0.00 | 0.00 | 94 | 1009.9 |
| 20260502091531 | 6 | 252 | 0.0 | 0.0 | 0.00 | 0.00 | 0.00 | 95 | 1009.3 |
| 20260502070017 | 6 | 252 | 0.0 | 0.0 | 0.00 | 0.00 | 0.00 | 94 | 1009.4 |
| 20260502064515 | 6 | 252 | 0.0 | 0.0 | 0.00 | 0.00 | 0.00 | 94 | 1009.4 |
| 20260502063012 | 6 | 252 | 0.0 | 0.0 | 0.00 | 0.00 | 0.00 | 94 | 1009.7 |
| 20260502061540 | 6 | 252 | 0.0 | 0.0 | 0.00 | 0.00 | 0.00 | 94 | 1010.0 |
| 20260502060038 | 6 | 261 | 0.0 | 3.2 | 0.00 | 0.00 | 0.00 | 94 | 1010.1 |
| 20260502054535 | 6 | 209 | 0.0 | 0.0 | 0.00 | 0.00 | 0.00 | 94 | 1010.4 |
| 20260502053035 | 7 | 252 | 0.0 | 0.0 | 0.00 | 0.00 | 0.00 | 94 | 1010.3 |
| 20260502051552 | 7 | 252 | 0.0 | 0.0 | 0.00 | 0.00 | 0.00 | 94 | 1010.2 |